[[{"header":{"parameterUnit":"m.s-1","parameterCategory":1,"la1":30.2991,"la2":30.254,"lo1":-89.0895,"lo2":-89.0444,"dy":0.0017,"dx":0.0017,"nx":28,"ny":28,"refTime":"2024-06-23T09:00:00:Z","depth":0,"parameterNumber":2,"parameterNumberName":"U-component_of_WINDS"},"data":[0,0,0,0,0,0,0,0,0,0,0,0,0,0,0,0,0,0,0,0,0,0,0,0,0,0,0,0,0,0,0,0,0,0,0,0,0,0,0,0,0,0,0,0,0,0,0,0,0,0,0,0,0,0,0,0,0,0,1.843,1.8431,0,1.8463,1.8463,1.8464,1.8449,1.8448,1.8447,1.8446,1.848,1.8481,1.8483,0,0,0,0,0,0,0,0,0,0,0,0,0,1.8352,1.8353,1.843,1.8431,1.8431,1.8463,1.8463,1.8464,1.8449,1.8448,1.8447,1.8446,1.8479,1.8481,1.8483,0,0,0,0,0,0,0,0,0,0,0,0,0,1.8385,1.8354,1.843,1.8427,1.8427,1.8463,1.8463,1.8464,1.8449,1.8448,1.8447,1.8446,1.8478,1.8481,1.8483,1.8523,0,0,1.8491,1.8492,0,0,0,0,0,0,0,0,1.8383,1.8388,1.8427,1.8428,1.8428,1.8451,1.8448,1.8484,1.8449,1.8441,1.8446,1.8445,1.8471,1.8474,1.8483,1.8525,1.8526,1.8491,1.8492,1.8494,1.8494,0,0,0,0,0,0,0,1.8381,1.8387,1.8443,1.8428,1.8428,1.8424,1.8427,1.8455,1.8462,1.8442,1.8441,1.8445,1.8471,1.848,1.8483,1.8526,1.8491,1.8493,1.8495,1.8496,1.8599,1.86,0,0,0,0,0,0,1.8379,1.8385,1.8442,1.8444,1.8402,1.8426,1.843,1.8445,1.8462,1.8464,1.8446,1.8444,1.8477,1.8481,1.8484,1.853,1.8493,1.8496,1.8497,1.8598,1.8599,1.8601,0,0,0,0,0,0,1.8378,1.8384,1.8441,1.8414,1.8421,1.8429,1.8445,1.8446,1.8455,1.8465,1.8466,1.8454,1.8476,1.8481,1.8513,1.8531,1.8497,1.8499,1.8596,1.8598,1.86,1.8622,0,0,0,0,0,0,1.8375,1.8384,1.84,1.8415,1.8423,1.8469,1.8446,1.8447,1.846,1.8458,1.8474,1.8475,1.8475,1.8509,1.8515,1.8534,1.8501,1.8595,1.8597,1.8599,1.862,1.8624,1.8629,0,0,0,0,0,1.8373,1.8406,1.8401,1.8408,1.8443,1.8471,1.8475,1.8475,1.8461,1.8477,1.8482,1.8474,1.8528,1.8513,1.8519,1.8539,1.8593,1.8596,1.8599,1.8618,1.8624,1.8628,0,0,0,0,0,0,1.8393,1.8408,1.8403,1.8441,1.8455,1.8468,1.8488,1.8482,1.8499,1.8496,1.8495,1.8499,1.8531,1.8538,1.8521,1.8576,1.8558,1.8563,1.857,1.8576,1.858,1.8577,1.8503,0,0,0,0,0,1.8402,1.8424,1.8435,1.8468,1.8475,1.848,1.8492,1.8491,1.8505,1.851,1.8519,1.8532,1.8551,1.8564,1.8583,1.8621,1.8623,1.8637,1.8642,1.8645,1.8649,1.8666,1.8672,1.861,1.861,1.861,0,0,1.8421,1.8432,1.8446,1.8473,1.8483,1.8504,1.8485,1.8509,1.8525,1.8514,1.8544,1.855,1.8565,1.8599,1.8614,1.8606,1.8666,1.8649,1.8652,1.8653,1.867,1.8675,1.8681,1.8612,1.8612,1.8611,0,0,1.8466,1.8478,1.8505,1.8515,1.853,1.8533,1.8539,1.8553,1.8556,1.8586,1.8578,1.8596,1.863,1.864,1.8649,1.8695,1.8687,1.8701,1.8724,1.8741,1.8746,1.875,1.8764,1.8769,1.8705,1.8705,1.8705,0,1.8488,1.852,1.852,1.8543,1.8554,1.8545,1.8571,1.8581,1.8602,1.8609,1.8599,1.864,1.865,1.8684,1.8695,1.8704,1.871,1.8699,1.8745,1.8749,1.8753,1.8767,1.8772,1.8706,1.8706,1.8706,1.8706,0,1.8544,1.8567,1.8587,1.8606,1.8619,1.8644,1.8646,1.866,1.8657,1.866,1.8689,1.8699,1.8719,1.8727,1.8725,1.8761,1.8755,1.8745,1.8727,1.8761,1.8773,1.8778,1.8708,1.8708,1.8707,1.8707,0,0,1.8604,1.8621,1.8628,1.8635,1.865,1.8667,1.869,1.8709,1.8719,1.8733,1.8752,1.878,1.877,1.8781,1.878,1.8795,1.8827,1.8783,1.8783,1.8789,1.8864,1.887,1.8876,1.8822,1.8823,1.8824,1.8862,0,1.8649,1.869,1.8689,1.8727,1.8745,1.8736,1.8756,1.8767,1.877,1.8786,1.8789,1.8808,1.8795,1.8801,1.8816,1.882,1.8842,1.8817,1.8838,1.8839,1.8833,1.8883,1.889,1.8925,1.8867,1.8868,1.8869,0,1.8706,1.872,1.876,1.8769,1.8777,1.8795,1.881,1.8826,1.8837,1.8838,1.8849,1.8845,1.8867,1.8849,1.8878,1.8862,1.887,1.8873,1.8874,1.8875,1.8855,1.8883,1.8936,1.8941,1.8877,1.8876,1.8875,0,1.8742,1.8772,1.8798,1.8805,1.8818,1.883,1.8836,1.8845,1.8856,1.8869,1.8875,1.8891,1.8899,1.8911,1.891,1.8898,1.8939,1.8922,1.8939,1.8939,1.8948,1.8947,1.9002,1.8956,1.8956,1.8956,1.8956,0,1.8791,1.8815,1.8814,1.8831,1.8856,1.8854,1.888,1.8884,1.8892,1.8908,1.8901,1.8916,1.8915,1.893,1.893,1.8952,1.8957,1.8957,1.8956,1.8957,1.8956,1.8961,1.8958,1.8957,1.8957,1.8957,1.8957,0,1.8835,1.8837,1.8864,1.8873,1.8876,1.8894,1.8901,1.8915,1.8917,1.8937,1.8942,1.8945,1.8961,1.8962,1.8982,1.8981,1.9008,1.9006,1.9005,1.9003,1.902,1.9017,1.9078,1.9085,1.9037,1.9037,1.9038,0,1.8866,1.8883,1.8893,1.8903,1.8909,1.8925,1.8935,1.8933,1.8943,1.8955,1.8968,1.8984,1.8996,1.9023,1.9027,1.9041,1.9038,1.9058,1.904,1.9039,1.9035,1.9033,1.9034,1.9061,1.9061,1.9062,1.9062,0,1.8918,1.8917,1.8931,1.8944,1.8956,1.8967,1.8977,1.8985,1.8984,1.8996,1.9012,1.9022,1.9041,1.9056,1.9069,1.9074,1.9067,1.9068,1.9072,1.9072,1.9069,1.9069,1.9012,1.9066,1.9066,1.9066,1.9065,1.9065,1.8954,1.8969,1.8977,1.8992,1.8999,1.9008,1.9021,1.9024,1.9037,1.9052,1.905,1.9068,1.9076,1.9093,1.9099,1.9112,1.9105,1.9112,1.9114,1.9115,1.9116,1.9068,1.9115,1.9115,1.9115,1.9115,1.9115,0,1.9004,1.9008,1.9022,1.9036,1.9047,1.9039,1.9049,1.9059,1.9075,1.9083,1.9095,1.9112,1.9127,1.913,1.9144,1.9153,1.915,1.9157,1.9155,1.9156,1.9122,1.9116,1.9159,1.9159,1.9159,1.9159,1.9159,1.9159,1.9031,1.9054,1.9053,1.9078,1.9082,1.9099,1.9105,1.9113,1.9119,1.9139,1.915,1.9152,1.9158,1.9171,1.9183,1.9184,1.9188,1.9195,1.9195,1.9163,1.9159,1.9154,1.9148,1.9197,1.9197,1.9227,1.9227,1.9227]},{"header":{"parameterUnit":"m.s-1","parameterCategory":1,"la1":30.2991,"la2":30.254,"lo1":-89.0895,"lo2":-89.0444,"dy":0.0017,"dx":0.0017,"nx":28,"ny":28,"refTime":"2024-06-23T09:00:00:Z","depth":0,"parameterNumber":3,"parameterNumberName":"V-component_of_WINDS"},"data":[0,0,0,0,0,0,0,0,0,0,0,0,0,0,0,0,0,0,0,0,0,0,0,0,0,0,0,0,0,0,0,0,0,0,0,0,0,0,0,0,0,0,0,0,0,0,0,0,0,0,0,0,0,0,0,0,0,0,5.3477,5.3478,0,5.3564,5.3565,5.3566,5.3527,5.3525,5.3523,5.3521,5.3602,5.3606,5.361,0,0,0,0,0,0,0,0,0,0,0,0,0,5.3268,5.3272,5.3477,5.3478,5.348,5.3564,5.3565,5.3567,5.3528,5.3525,5.3523,5.352,5.3601,5.3605,5.361,0,0,0,0,0,0,0,0,0,0,0,0,0,5.3357,5.3273,5.3477,5.3471,5.3471,5.3564,5.3565,5.3567,5.3528,5.3525,5.3522,5.3519,5.3599,5.3605,5.3611,5.3713,0,0,5.363,5.3633,0,0,0,0,0,0,0,0,5.3352,5.3365,5.347,5.3471,5.3472,5.3532,5.3521,5.3616,5.3529,5.3506,5.3521,5.3517,5.3581,5.3588,5.3611,5.3717,5.372,5.3631,5.3634,5.3637,5.3639,0,0,0,0,0,0,0,5.3346,5.3361,5.3511,5.3472,5.3473,5.346,5.3469,5.3539,5.356,5.3508,5.3505,5.3517,5.358,5.3605,5.3613,5.3722,5.363,5.3636,5.364,5.3642,5.3912,5.3915,0,0,0,0,0,0,5.3341,5.3356,5.3509,5.3514,5.3403,5.3466,5.3477,5.3516,5.3559,5.3563,5.3519,5.3515,5.3596,5.3606,5.3615,5.3736,5.3637,5.3643,5.3646,5.3908,5.3912,5.3916,0,0,0,0,0,0,5.3337,5.3355,5.3505,5.3434,5.3453,5.3474,5.3518,5.3519,5.3544,5.3568,5.3571,5.3542,5.3594,5.3607,5.3689,5.3738,5.3646,5.3651,5.3904,5.391,5.3914,5.3978,0,0,0,0,0,0,5.3331,5.3354,5.3395,5.3436,5.3457,5.358,5.3521,5.3523,5.3556,5.3551,5.359,5.3593,5.3593,5.368,5.3695,5.3745,5.3656,5.39,5.3907,5.3913,5.3972,5.3985,5.3996,0,0,0,0,0,5.3323,5.3409,5.3398,5.3416,5.3509,5.3583,5.3595,5.3595,5.356,5.36,5.3615,5.3592,5.3731,5.3689,5.3705,5.3758,5.3897,5.3905,5.3912,5.3966,5.3982,5.3996,0,0,0,0,0,0,5.3371,5.3414,5.3402,5.3504,5.354,5.3577,5.3627,5.3613,5.3658,5.3651,5.3647,5.3656,5.3741,5.3757,5.371,5.3857,5.3808,5.3819,5.3843,5.3859,5.3871,5.3864,5.3661,0,0,0,0,0,5.3393,5.3453,5.3486,5.3572,5.3592,5.3607,5.3639,5.3636,5.3673,5.3687,5.3708,5.3743,5.3793,5.3827,5.3876,5.3974,5.398,5.4018,5.403,5.404,5.405,5.41,5.4116,5.3942,5.3941,5.3941,0,0,5.344,5.3471,5.3508,5.3583,5.3611,5.3669,5.362,5.3684,5.3726,5.3696,5.3775,5.3792,5.3829,5.392,5.396,5.3936,5.4099,5.405,5.4058,5.4062,5.411,5.4126,5.4141,5.3947,5.3946,5.3945,0,0,5.3554,5.3585,5.3659,5.3689,5.3733,5.3742,5.376,5.3799,5.3809,5.3889,5.3867,5.3915,5.4004,5.4031,5.4056,5.4179,5.4158,5.4195,5.4258,5.4307,5.4321,5.4333,5.4375,5.439,5.4205,5.4205,5.4205,0,5.3606,5.3696,5.3698,5.3765,5.3796,5.3774,5.3847,5.3874,5.3931,5.3952,5.3924,5.4034,5.4058,5.4153,5.4183,5.4205,5.4222,5.419,5.432,5.4332,5.4343,5.4382,5.4398,5.4209,5.4208,5.4208,5.4208,0,5.3756,5.3819,5.3872,5.393,5.3968,5.4037,5.4046,5.4083,5.4077,5.4088,5.4167,5.4195,5.4248,5.427,5.4264,5.4364,5.4347,5.432,5.427,5.4364,5.44,5.4416,5.4215,5.4213,5.4212,5.4211,0,0,5.3903,5.396,5.398,5.4005,5.4051,5.4098,5.4164,5.4218,5.4249,5.4288,5.4341,5.4417,5.4391,5.442,5.4416,5.446,5.4552,5.4427,5.4427,5.4447,5.466,5.4679,5.4697,5.4539,5.4542,5.4544,5.4656,0,5.4019,5.4139,5.4141,5.425,5.4305,5.4284,5.4341,5.4374,5.4386,5.4432,5.4443,5.4496,5.446,5.4477,5.4519,5.4532,5.4594,5.4524,5.4585,5.4587,5.4575,5.4717,5.4737,5.4842,5.4671,5.4673,5.4675,0,5.4171,5.4217,5.4331,5.4368,5.4391,5.4443,5.4491,5.4538,5.4573,5.4577,5.461,5.4599,5.4662,5.4612,5.4698,5.465,5.4675,5.4685,5.4689,5.4693,5.4636,5.4722,5.4875,5.489,5.4698,5.4696,5.4695,0,5.4263,5.4354,5.4433,5.4456,5.4501,5.4537,5.4557,5.459,5.4621,5.4662,5.4682,5.4729,5.4754,5.479,5.4791,5.4754,5.4877,5.4827,5.488,5.488,5.4905,5.4903,5.5062,5.4925,5.4925,5.4924,5.4924,0,5.4392,5.4462,5.4476,5.4524,5.4601,5.4602,5.4677,5.4693,5.4722,5.4771,5.4755,5.48,5.48,5.4845,5.4846,5.4915,5.4927,5.4931,5.493,5.4931,5.4931,5.4946,5.4938,5.4928,5.4928,5.4927,5.4926,0,5.4508,5.452,5.4605,5.4641,5.4652,5.4706,5.4735,5.478,5.479,5.4852,5.4866,5.4881,5.4933,5.4938,5.4998,5.4999,5.5082,5.5074,5.5071,5.5069,5.5121,5.5115,5.5294,5.5316,5.5166,5.5168,5.5169,0,5.4588,5.4642,5.4684,5.4717,5.4739,5.4792,5.4825,5.4827,5.486,5.4904,5.4942,5.4994,5.5035,5.5119,5.5133,5.5178,5.517,5.5229,5.5176,5.5175,5.5168,5.5164,5.5168,5.5239,5.524,5.5242,5.5243,0,5.4728,5.4732,5.4781,5.4831,5.4871,5.491,5.4947,5.4974,5.4979,5.5018,5.5072,5.5104,5.5166,5.5216,5.5261,5.5277,5.526,5.526,5.5274,5.5275,5.527,5.5271,5.5097,5.5255,5.5254,5.5253,5.5252,5.5252,5.4828,5.4873,5.491,5.4964,5.4992,5.5026,5.507,5.5086,5.5132,5.5184,5.5182,5.5241,5.5272,5.533,5.5351,5.5395,5.5374,5.5396,5.5401,5.5405,5.541,5.5265,5.5403,5.5403,5.5402,5.5402,5.5402,0,5.4965,5.4988,5.5038,5.509,5.5132,5.5115,5.5154,5.5189,5.5242,5.5274,5.5315,5.5376,5.5424,5.5442,5.5488,5.552,5.5513,5.5532,5.5528,5.5532,5.5427,5.5409,5.5537,5.5537,5.5537,5.5537,5.5536,5.5536,5.5041,5.5117,5.5125,5.5213,5.5234,5.5294,5.5318,5.5348,5.5373,5.5443,5.5484,5.5496,5.5521,5.5569,5.5611,5.5614,5.5631,5.5653,5.5653,5.5553,5.554,5.5527,5.551,5.5657,5.5657,5.5754,5.5755,5.5756]}]]